This is the latest recevied weather packets stored in our database for station/object N5TDX. If no packets are shown the sender has not sent any weather packets the latest 10 day(s).
| Time | Temp. | Humidity | Pressure | Rain* | Wind** | Luminosity | Snow |
|---|---|---|---|---|---|---|---|
| 1788096606 | 27.22° C | 66% | 1013.8 hPa | 0 mm | - | - | - |
| 1788096303 | 27.22° C | 67% | 1013.8 hPa | 0 mm | - | - | - |
| 1788096008 | 27.22° C | 68% | 1013.8 hPa | 0 mm | - | - | - |
| 1788095701 | 26.67° C | 68% | 1013.9 hPa | 0 mm | - | - | - |
| 1788095396 | 26.67° C | 69% | 1013.7 hPa | 0 mm | - | - | - |
| 1788095092 | 26.11° C | 70% | 1013.7 hPa | 0 mm | - | - | - |
| 1788094790 | 26.11° C | 70% | 1013.7 hPa | 0 mm | - | - | - |
| 1788094486 | 26.11° C | 70% | 1013.7 hPa | 0 mm | - | - | - |
| 1788094184 | 25.56° C | 71% | 1013.6 hPa | 0 mm | - | - | - |
| 1788093879 | 25.56° C | 71% | 1013.2 hPa | 0 mm | - | - | - |
| 1788093576 | 25.56° C | 71% | 1013.4 hPa | 0 mm | - | - | - |
| 1788093272 | 25.56° C | 71% | 1013.4 hPa | 0 mm | - | - | - |
| 1788092969 | 25.56° C | 71% | 1013.1 hPa | 0 mm | - | - | - |
| 1788092669 | 25° C | 72% | 1013.2 hPa | 0 mm | - | - | - |
| 1788092060 | 25.56° C | 71% | 1013 hPa | 0 mm | - | - | - |
| 1788091754 | 25.56° C | 71% | 1012.9 hPa | 0 mm | - | - | - |
| 1788091450 | 25.56° C | 71% | 1012.9 hPa | 0 mm | - | - | - |
| 1788091146 | 25.56° C | 71% | 1012.9 hPa | 0 mm | - | - | - |
| 1788090842 | 25.56° C | 71% | 1012.9 hPa | 0 mm | - | - | - |
| 1788090537 | 25.56° C | 70% | 1013 hPa | 0 mm | - | - | - |
| 1788090234 | 25.56° C | 70% | 1012.7 hPa | 0 mm | - | - | - |
| 1788089928 | 25.56° C | 70% | 1012.9 hPa | 0 mm | - | - | - |
| 1788089628 | 25.56° C | 69% | 1012.6 hPa | 0 mm | - | - | - |
| 1788089324 | 25.56° C | 69% | 1012.5 hPa | 0 mm | - | - | - |
| 1788089020 | 25.56° C | 69% | 1012.5 hPa | 0 mm | - | - | - |
* Rain latest hour (hover to see other rain measurements)
** Current wind speed in m/s (hover to see current wind gust speed)